This demonstration page uses our WeatherBlox Daily Observations layout. Learn more.

39.01783, -85.05884

Hourly Observations for January 2, 2019

Temp ( °F °C ) Dew Point ( °F °C ) Humidity (%) Winds ( mph kmh ) Pressure ( in mb ) Visibility ( mi km ) Precip ( " mm )
12:52 am 00:52 Cloudy 40 4.4 35 1.7 83 83 NNW 7 11 30.24 1024 10 16.09344 0 0
1:52 am 01:52 Cloudy 39 3.9 35 1.7 86 86 NNE 5 7 30.24 1024 10 16.09344 0 0
2:52 am 02:52 Cloudy 39 3.9 35 1.7 86 86 Calm 30.27 1025 9 14.484096 0 0
3:29 am 03:29 Cloudy 39 3.9 35 1.7 86 86 NNE 5 7 30.27 1025 9 14.484096 0 0
3:52 am 03:52 Cloudy 39 3.9 35 1.7 86 86 ENE 5 7 30.24 1024 9 14.484096 0 0
4:52 am 04:52 Cloudy 39 3.9 35 1.7 86 86 Calm 30.21 1023 8 12.874752 0 0
5:30 am 05:30 Cloudy 39 3.9 36 2.2 89 89 ESE 6 9 30.24 1024 8 12.874752 0 0
5:52 am 05:52 Cloudy 39 3.9 36 2.2 89 89 ESE 5 7 30.21 1023 7 11.265408 0 0
6:21 am 06:21 Cloudy 39 3.9 35 1.7 86 86 ESE 7 11 30.24 1024 7 11.265408 0 0
6:52 am 06:52 Cloudy 39 3.9 36 2.2 89 89 ESE 6 9 30.21 1023 8 12.874752 0 0
7:52 am 07:52 Cloudy 39 3.9 36 2.2 89 89 SE 3 6 30.21 1023 8 12.874752 0 0
8:52 am 08:52 Cloudy with Mist and Fog 39 3.9 36 2.2 89 89 SSE 3 6 30.24 1024 5 8.04672 0 0
9:13 am 09:13 Cloudy with Mist and Fog 40 4.4 37 2.8 89 89 S 5 7 30.27 1025 6 9.656064 0 0
9:46 am 09:46 Cloudy with Mist and Fog 39 4 37 3 93 93 S 6 9 30.27 1025 5 8.04672 0 0
9:52 am 09:52 Cloudy with Mist and Fog 40 4.4 37 2.8 89 89 S 7 11 30.24 1024 5 8.04672 0 0
10:52 am 10:52 Cloudy with Mist and Fog 41 5 37 2.8 86 86 SW 3 6 30.21 1023 6 9.656064 0 0
11:39 am 11:39 Cloudy 41 5 37 2.8 86 86 S 6 9 30.21 1023 7 11.265408 0 0
11:52 am 11:52 Cloudy 41 5 37 2.8 86 86 S 5 7 30.18 1022 8 12.874752 0 0
12:22 pm 12:22 Cloudy 42 5.6 37 2.8 82 82 S 6 9 30.18 1022 8 12.874752 0 0
12:27 pm 12:27 Cloudy 42 5.6 37 2.8 82 82 SSW 7 11 30.18 1022 8 12.874752 0 0
12:52 pm 12:52 Cloudy 42 5.6 36 2.2 79 79 SSW 7 11 30.12 1020 10 16.09344 0 0
1:16 pm 13:16 Cloudy 42 5.6 36 2.2 79 79 SSW 9 15 30.15 1021 10 16.09344 0 0
1:52 pm 13:52 Cloudy 42 5.6 36 2.2 79 79 SSW 9 15 30.09 1019 10 16.09344 0 0
2:39 pm 14:39 Cloudy 42 5.6 37 2.8 82 82 SSW 12 19 30.12 1020 10 16.09344 0.001 0.001
2:52 pm 14:52 Cloudy 42 5.6 37 2.8 82 82 SW 10 17 30.06 1018 10 16.09344 0.001 0.001
3:45 pm 15:45 Cloudy 42 5.6 36 2.2 79 79 SW 8 13 30.09 1019 10 16.09344 0 0
3:52 pm 15:52 Cloudy 42 5.6 36 2.2 79 79 WSW 8 13 30.06 1018 10 16.09344 0 0
4:52 pm 16:52 Cloudy 42 5.6 35 1.7 76 76 SW 10 17 30.03 1017 10 16.09344 0 0
5:52 pm 17:52 Cloudy 41 5 34 1.1 76 76 SW 8 13 30.03 1017 10 16.09344 0 0
6:52 pm 18:52 Cloudy 41 5 34 1.1 76 76 SW 12 19 30.03 1017 10 16.09344 0 0
7:52 pm 19:52 Cloudy 41 5 34 1.1 76 76 SW 10 17 30.03 1017 10 16.09344 0 0
8:52 pm 20:52 Cloudy 40 4.4 34 1.1 79 79 W 12 19 30.03 1017 10 16.09344 0 0
9:52 pm 21:52 Cloudy 40 4.4 33 0.6 77 77 W 17 28 30.06 1018 10 16.09344 0 0
10:22 pm 22:22 Cloudy 39 3.9 33 0.6 79 79 W 13 20 30.09 1019 10 16.09344 0 0
10:52 pm 22:52 Cloudy 38 3.3 33 0.6 83 83 W 16 26 30.06 1018 10 16.09344 0 0
11:52 pm 23:52 Cloudy 38 3.3 33 0.6 83 83 WNW 13 20 30.06 1018 10 16.09344 0 0

Powered by AerisWeather